This is the latest recevied weather packets stored in our database for station/object K0WOI. If no packets are shown the sender has not sent any weather packets the latest 1 day(s).
| Time | Temp. | Humidity | Pressure | Rain* | Wind** | Luminosity | Snow |
|---|---|---|---|---|---|---|---|
| 1778037225 | 8.89° C | 44% | 1012.9 hPa | 0 mm | - | 0 W/m² | - |
| 1778036923 | 8.89° C | 43% | 1012.4 hPa | 0 mm | - | 0 W/m² | - |
| 1778036317 | 9.44° C | 42% | 1012.2 hPa | 0 mm | - | 0 W/m² | - |
| 1778036013 | 10° C | 41% | 1012.4 hPa | 0 mm | - | 0 W/m² | - |
| 1778035710 | 10° C | 41% | 1012.3 hPa | 0 mm | - | 0 W/m² | - |
| 1778035407 | 10° C | 40% | 1012.3 hPa | 0 mm | - | 0 W/m² | - |
| 1778035103 | 10.56° C | 41% | 1012.3 hPa | 0 mm | - | 0 W/m² | - |
| 1778034800 | 10.56° C | 40% | 1012.1 hPa | 0 mm | - | 0 W/m² | - |
| 1778034497 | 10.56° C | 40% | 1012.2 hPa | 0 mm | - | 0 W/m² | - |
| 1778034195 | 10.56° C | 40% | 1012.1 hPa | 0 mm | - | 0 W/m² | - |
| 1778033893 | 11.11° C | 39% | 1011.9 hPa | 0 mm | - | 0 W/m² | - |
| 1778033286 | 11.11° C | 38% | 1011.7 hPa | 0 mm | - | 0 W/m² | - |
| 1778032984 | 11.11° C | 39% | 1011.8 hPa | 0 mm | - | 0 W/m² | - |
| 1778032682 | 11.11° C | 37% | 1011.8 hPa | 0 mm | - | 0 W/m² | - |
| 1778032379 | 11.67° C | 38% | 1011.6 hPa | 0 mm | - | 0 W/m² | - |
| 1778032075 | 11.67° C | 38% | 1011.4 hPa | 0 mm | - | 0 W/m² | - |
| 1778031772 | 11.67° C | 36% | 1011.5 hPa | 0 mm | - | 0 W/m² | - |
| 1778031469 | 11.67° C | 36% | 1011.5 hPa | 0 mm | - | 0 W/m² | - |
| 1778030863 | 11.67° C | 38% | 1011.5 hPa | 0 mm | - | 0 W/m² | - |
| 1778030257 | 11.67° C | 36% | 1011.3 hPa | 0 mm | - | 0 W/m² | - |
| 1778029953 | 11.67° C | 35% | 1010.9 hPa | 0 mm | - | 1 W/m² | - |
| 1778029652 | 11.67° C | 35% | 1011 hPa | 0 mm | - | 1 W/m² | - |
| 1778029046 | 11.67° C | 36% | 1011 hPa | 0 mm | - | 5 W/m² | - |
| 1778028742 | 11.67° C | 37% | 1010.6 hPa | 0 mm | - | 7 W/m² | - |
| 1778028438 | 12.22° C | 34% | 1010.9 hPa | 0 mm | - | 9 W/m² | - |
* Rain latest hour (hover to see other rain measurements)
** Current wind speed in m/s (hover to see current wind gust speed)